GEESAT 5-08

导读

GEESAT 5-08是中国于2025年9月8日发射的商业低轨卫星,隶属于吉利未来出行星座,由吉利旗下Geespace研制运营。该卫星主要用于开展卫星物联网试验与星间通信技术验证,服务智能网联汽车、海洋渔业、工程建设、应急救援、交通物流等多场景应用,同时可支持环境监测等对地观测任务,将进一步完善中国商业低轨卫星星座布局,赋能天地一体化信息网络建设。

基本信息
目录编号:
65557
目录名称:
GEESAT 5-08
国际标识:
2025-201H
轨道中心:
EARTH
卫星名称:
GEESAT 5-08
卫星全名:
GEESAT 5-08
卫星状态:
在轨 (已飞行277 天)
发射日期:
2025-09-08 UTC
国别 :
中国 (CN)
星等 :
--
轨道信息
数据来源 国际轨道数据 AOE轨道数据
星历时间 2026-06-12T08:13:10+0800
19小时前
查看轨道信息
2026-06-10T07:00:00+0800
2天前
查看轨道信息
半长轴 6998.488km 6998.465km
偏心率 0.0001991 0.0001967
轨道倾角 49.980° 49.979°
近地点辐角 296.234° 284.754°
升交点赤经 59.663° 69.159°
平近点角 63.840° 279.775°
近地点 618.957km 618.951km
远地点 621.745km 621.705km
周期 97.110分钟 97.110分钟
每日圈数 14.828475 14.828548
详细信息
使用方式:
暂无
2D轨道图
3D轨道图
轨道高度分析图
轨道倾角分析图
轨道综合分析图
查看轨道综合分析图